Regional Weather Roundup
Issued by NWS

Home | Current Version | Previous Version | Text Only | Print | Product List | Glossary On
Versions: 1 2 3 4 5 6 7 8 9 10 11 12 13 14 15 16 17 18 19 20 21 22 23 24 25 26 27 28 29 30 31 32 33 34 35 36 37 38 39 40 41 42 43 44 45 46 47 48 49 50
000
ASUS45 KPSR 202010
RWRAZ

ARIZONA HOURLY REGIONAL WEATHER ROUNDUP
NATIONAL WEATHER SERVICE PHOENIX AZ
100 PM MST FRI JAN 20 2017

NOTE: FAIR INDICATES FEW OR NO CLOUDS BELOW 12,000 FEET WITH NO
SIGNIFICANT WEATHER AND/OR OBSTRUCTIONS TO VISIBILITY.

AZZ001>003-036-202100-
NORTHWEST ARIZONA

CITY           SKY/WX    TMP DP  RH WIND       PRES   REMARKS
BULLHEAD CITY  CLOUDY    54  45  71 S14G21    29.60F
KINGMAN        CLOUDY    44  36  73 S17       29.59F
$$

AZZ004>008-015-016-018-202100-
NORTH CENTRAL ARIZONA

CITY           SKY/WX    TMP DP  RH WIND       PRES   REMARKS
GRAND CANYON   SNOW      30  28  92 S10G24    29.60F VSB 1/2 WCI  21
WILLIAMS       LGT SNOW  32  28  86 S14G21    29.61F VSB 3/4 WCI  22
PRESCOTT       LGT RAIN  37  35  92 S13G24    29.67F FOG     WCI  29
FLAGSTAFF      SNOW      29  27  92 SW20G28   29.61F VSB 1/4 WCI  16
PAYSON         DRIZZLE   36  34  93 VRB7      29.73F WCI  30
PAGE           CLOUDY    41  30  65 CALM      29.58F
$$

AZZ009>014-017-202100-
NORTHEAST ARIZONA

CITY           SKY/WX    TMP DP  RH WIND       PRES   REMARKS
WINSLOW        CLOUDY    45  30  55 SW15      29.64F
SAINT JOHNS    CLOUDY    42  32  67 W15G24    29.67F
SHOW LOW       SNOW      32  28  86 SW21G30   29.68F VSB 1/2 WCI  20
$$

AZZ023-202100-
GREATER PHOENIX AREA

CITY           SKY/WX    TMP DP  RH WIND       PRES   REMARKS
PHOENIX        CLOUDY    52  46  80 E12       29.72F
BUCKEYE        CLOUDY    54  48  82 E8        29.72F
GLENDALE       CLOUDY    54  52  94 NE6       29.75F
LUKE AFB       CLOUDY    54  48  79 E7        29.71F
DEER VALLEY    LGT RAIN  50  47  89 SE10      29.73F
SCOTTSDALE     CLOUDY    50  46  86 VRB5      29.75F
MESA-FALCON    CLOUDY   N/A N/A N/A E10       29.72F
MESA-GATEWAY   CLOUDY    50  46  87 SE10      29.76F
CHANDLER       CLOUDY    54  50  87 E9        29.74F
$$

AZZ027-028-202100-
SOUTHWEST MARICOPA COUNTY AND PINAL COUNTY

CITY           SKY/WX    TMP DP  RH WIND       PRES   REMARKS
CASA GRANDE    CLOUDY    53  49  86 SE9       29.74F
$$

AZZ503-504-507>509-202100-
SOUTHEAST ARIZONA

CITY           SKY/WX    TMP DP  RH WIND       PRES   REMARKS
TUCSON         CLOUDY    56  35  45 SW18G29   29.81F
DAVIS-MONTHAN  CLOUDY    55  36  49 SW23G31   29.79F
RYAN FIELD     PTSUNNY   55  37  50 S21G35    29.80F
NOGALES        CLOUDY    51  38  60 S15       29.83F
SIERRA VISTA   CLOUDY    49  34  56 S9G31     29.81F
DOUGLAS        PTSUNNY   52  37  56 SW23G36   29.82F
SAFFORD        PTSUNNY   56  37  49 NW6       29.74F
$$

AZZ020-021-025-026-031-202100-
SOUTHWEST ARIZONA

CITY           SKY/WX    TMP DP  RH WIND       PRES   REMARKS
YUMA           CLOUDY    61  48  62 S21       29.68F
$$

CAZ031-033-041-043-047-048-061-202100-
SOUTHERN CALIFORNIA

CITY           SKY/WX    TMP DP  RH WIND       PRES   REMARKS
DOWNTOWN L.A.  HVY RAIN  52  50  93 VRB6      29.51F VSB 3/4
L.A. AIRPORT   HVY RAIN  52  52 100 SW8       29.52F VSB 1/4
SAN DIEGO      LGT RAIN  57  52  83 S24       29.68F
BURBANK        HVY RAIN  50  48  93 SE17G29   29.48F FOG
ONTARIO        HVY RAIN  49  48  97 NE7       29.55F FOG
RIVERSIDE      RAIN      50  48  93 E8        29.56F FOG
PALM SPRINGS   LGT RAIN  59  44  57 VRB7      29.56F
EL CENTRO NAS  PTSUNNY   63  42  46 SE9       29.65F
IMPERIAL       CLOUDY    63  46  54 S9        29.63F
BLYTHE         CLOUDY    58  43  57 S16       29.62F
NEEDLES        CLOUDY    57  43  59 S12G23    29.60F
$$

NVZ020-UTZ003-202100-
SOUTHERN NEVADA-UTAH

CITY           SKY/WX    TMP DP  RH WIND       PRES   REMARKS
LAS VEGAS      LGT RAIN  46  39  76 S10G20    29.50F
SALT LAKE CITY PTSUNNY   39  32  76 S13       29.49F WCI  31
$$

NMZ009-TXZ055-202100-
NEW MEXICO-WEST TEXAS

CITY           SKY/WX    TMP DP  RH WIND       PRES   REMARKS
ALBUQUERQUE    CLOUDY    41  27  57 W8        29.68F
EL PASO        MOSUNNY   57  26  30 W18G25    29.74F
$$


........................KEY........................
SKY/WX - SKY CONDITION/WEATHER
TMP    - TEMPERATURE IN FAHRENHEIT
DP     - DEW POINT IN FAHRENHEIT
RH     - RELATIVE HUMIDITY IN PERCENT
WIND   - DIRECTION AND SPEED IN MILES PER HOUR (MPH)
VRB    - VARIABLE WIND DIRECTION
PRES   - MEAN SEA LEVEL PRESSURE IN INCHES OF MERCURY
         F - FALLING PRESSURE   R - RISING PRESSURE
         S - STEADY PRESSURE
VSB    - VISIBILITY IN MILES
HX     - HEAT INDEX IN FAHRENHEIT
WCI    - WIND CHILL INDEX IN FAHRENHEIT
TC     - TEMPERATURE IN CELSIUS WHICH IS ALSO KNOWN AS
         TEMPERATURE IN CENTIGRADE
AFB    - AIR FORCE BASE
         LUKE AFB IS LUKE AIR FORCE BASE
         DAVIS-MONTHAN IS DAVIS-MONTHAN AIR FORCE BASE
NAS    - NAVAL AIR STATION
         EL CENTRO NAS IS EL CENTRO NAVAL AIR STATION
N/A    - NOT AVAILABLE




USA.gov is the U.S. government's official web portal to all federal, state and local government web resources and services.